{"data":{"norad_id":43478,"intl_designator":"2018-047C","name":"IRIDIUM 161","alt_names":[],"object_type":"PAYLOAD","status":"ACTIVE","operator":null,"country":"US","launch_date":"2018-05-22","launch_site_code":"AFWTR","launch_vehicle":null,"mission":null,"orbit_class":"UNKNOWN","rcs_meters":null,"size_class":null,"mass_kg":null,"dimensions":null,"purposes":["comms"],"wikipedia_slug":null,"has_3d_model":false,"image_url":null,"decayed_at":null,"tle_current":{"epoch":"2026-09-20T03:39:13.860864Z","epoch_age_seconds":45618,"freshness":"FRESH","line1":"1 43478U 18047C   26263.15224376  .00000176  00000+0  46351-4 0  9991","line2":"2 43478  86.4469  48.7285 0002302  95.5689 264.5774 14.43279434438830","mean_motion":14.43279434,"eccentricity":0.0002302,"inclination_deg":86.4469,"raan_deg":48.7285,"arg_perigee_deg":95.5689,"mean_anomaly_deg":264.5774,"bstar":4.6351e-5,"rev_number":43883,"period_min":99.772778997418,"perigee_km":746.04337053659,"apogee_km":749.32409840274,"semimajor_km":7125.8207344697,"source":"CELESTRAK","updated_at":"2026-09-20T09:00:36.330653Z"}}}